[[{"header":{"parameterUnit":"m.s-1","parameterCategory":1,"la1":30.2992,"la2":30.254,"lo1":-89.0895,"lo2":-89.0443,"dy":0.0025,"dx":0.0025,"nx":19,"ny":19,"refTime":"2026-04-08T21:00:00:Z","depth":0,"parameterNumber":2,"parameterNumberName":"U-component_of_WINDS"},"data":[0,0,0,-5.146,-5.1469,-5.189,-5.1892,-5.2425,-5.2429,0,0,0,0,0,0,0,0,0,0,0,-5.1329,-5.1332,-5.1459,-5.1469,-5.189,-5.1892,-5.2424,-5.2429,0,0,0,0,0,0,0,0,0,0,0,-5.1327,-5.1331,-5.1335,-5.1471,-5.1889,-5.1892,-5.2423,-5.2108,0,0,0,0,0,0,0,0,0,0,-5.17,-5.1572,-5.133,-5.1335,-5.1473,-5.1889,-5.1892,-5.2093,-5.2128,-5.2231,0,-5.2318,0,-5.2382,-5.2464,-5.2466,0,0,0,-5.1475,-5.1543,-5.1662,-5.1336,-5.1477,-5.1888,-5.1702,-5.2112,-5.2152,-5.2277,-5.2325,-5.2345,-5.239,-5.2468,-5.247,-5.3038,-5.304,0,0,-5.1452,-5.1402,-5.1635,-5.1687,-5.1618,-5.1688,-5.1715,-5.2136,-5.2187,-5.2327,-5.2358,-5.2399,-5.2471,-5.2475,-5.3036,-5.3038,0,0,0,-5.1381,-5.1385,-5.1494,-5.1665,-5.1741,-5.17,-5.1731,-5.2169,-5.2208,-5.2364,-5.2405,-5.2474,-5.2481,-5.3033,-5.3037,-5.3104,0,0,0,-5.1368,-5.1344,-5.1484,-5.1457,-5.1733,-5.1959,-5.1754,-5.2179,-5.2228,-5.2403,-5.2474,-5.2486,-5.303,-5.3035,-5.3097,-5.3145,0,0,0,-5.1304,-5.1337,-5.1395,-5.1454,-5.1632,-5.1954,-5.2018,-5.2191,-5.2254,-5.2467,-5.2487,-5.3029,-5.3034,-5.309,-5.3135,-5.328,0,0,0,-5.1222,-5.1451,-5.1395,-5.1667,-5.1628,-5.1991,-5.2015,-5.2289,-5.248,-5.2477,-5.3031,-5.3036,-5.3088,-5.3128,-5.3273,-5.3394,-5.3439,0,0,-5.1483,-5.148,-5.1645,-5.1607,-5.1966,-5.1931,-5.2302,-5.2526,-5.2594,-5.2887,-5.2901,-5.3099,-5.3134,-5.3279,-5.3709,-5.3744,0,0,0,-5.171,-5.1828,-5.1934,-5.2111,-5.2285,-5.244,-5.2612,-5.2695,-5.2946,-5.2733,-5.3192,-5.3215,-5.3302,-5.3362,-5.3392,-5.3471,-5.3062,-5.3061,-5.306,-5.2009,-5.2081,-5.2358,-5.248,-5.2653,-5.2827,-5.2974,-5.3117,-5.3141,-5.3249,-5.3336,-5.3588,-5.3657,-5.368,-5.3761,-5.3405,-5.3406,-5.3406,-5.3406,-5.2399,-5.2577,-5.2602,-5.2879,-5.2955,-5.319,-5.3367,-5.3377,-5.3609,-5.3528,-5.3609,-5.3515,-5.3716,-5.3791,-5.3412,-5.3411,-5.341,-5.341,-5.3409,-5.2604,-5.2701,-5.2796,-5.306,-5.3256,-5.3374,-5.3594,-5.3656,-5.3717,-5.3796,-5.3896,-5.3895,-5.3903,-5.3839,-5.384,-5.3841,-5.3842,-5.3842,-5.3843,-5.2779,-5.2883,-5.306,-5.3263,-5.3385,-5.3554,-5.3731,-5.3855,-5.4008,-5.4036,-5.4037,-5.4051,-5.3722,-5.3638,-5.3857,-5.3854,-5.3852,-5.3851,-5.385,-5.3149,-5.3075,-5.3347,-5.3469,-5.3713,-5.3904,-5.398,-5.4225,-5.4337,-5.4444,-5.4442,-5.4187,-5.419,-5.4167,-5.4098,-5.4424,-5.4424,-5.4424,-5.4424,-5.3322,-5.3328,-5.3621,-5.3812,-5.4006,-5.4102,-5.4411,-5.4551,-5.4686,-5.476,-5.4722,-5.4636,-5.4609,-5.4628,-5.4595,-5.4532,-5.496,-5.4961,-5.4962,-5.3555,-5.3582,-5.3832,-5.3958,-5.4154,-5.4321,-5.4614,-5.4836,-5.4973,-5.4985,-5.482,-5.4797,-5.4659,-5.4609,-5.4617,-5.4564,-5.4449,0,0]},{"header":{"parameterUnit":"m.s-1","parameterCategory":1,"la1":30.2992,"la2":30.254,"lo1":-89.0895,"lo2":-89.0443,"dy":0.0025,"dx":0.0025,"nx":19,"ny":19,"refTime":"2026-04-08T21:00:00:Z","depth":0,"parameterNumber":3,"parameterNumberName":"V-component_of_WINDS"},"data":[0,0,0,-0.6982,-0.698,-0.6888,-0.6888,-0.6783,-0.6782,0,0,0,0,0,0,0,0,0,0,0,-0.7019,-0.7019,-0.6982,-0.698,-0.6888,-0.6888,-0.6783,-0.6782,0,0,0,0,0,0,0,0,0,0,0,-0.7019,-0.7019,-0.7018,-0.698,-0.6888,-0.6888,-0.6783,-0.6847,0,0,0,0,0,0,0,0,0,0,-0.6934,-0.6979,-0.7019,-0.7018,-0.6979,-0.6888,-0.6888,-0.685,-0.6843,-0.683,0,-0.6823,0,-0.6801,-0.6776,-0.6775,0,0,0,-0.6972,-0.6984,-0.6951,-0.7018,-0.6979,-0.6889,-0.6927,-0.6846,-0.6838,-0.6821,-0.6822,-0.6817,-0.6799,-0.6775,-0.6775,-0.673,-0.673,0,0,-0.6977,-0.7007,-0.6956,-0.6947,-0.6964,-0.693,-0.6925,-0.6841,-0.6843,-0.6821,-0.6815,-0.6798,-0.6775,-0.6774,-0.673,-0.673,0,0,0,-0.6997,-0.7011,-0.6979,-0.6951,-0.6934,-0.6928,-0.6921,-0.6846,-0.6834,-0.6813,-0.6796,-0.6774,-0.6773,-0.673,-0.673,-0.6768,0,0,0,-0.7,-0.7023,-0.6982,-0.6999,-0.6936,-0.6889,-0.6929,-0.684,-0.6829,-0.6797,-0.6774,-0.6772,-0.673,-0.673,-0.6767,-0.6781,0,0,0,-0.7021,-0.7025,-0.7015,-0.7001,-0.6963,-0.689,-0.6872,-0.6837,-0.6819,-0.6775,-0.6772,-0.673,-0.673,-0.6765,-0.6779,-0.6778,0,0,0,-0.7053,-0.7049,-0.7016,-0.7006,-0.6964,-0.6915,-0.6873,-0.6834,-0.6801,-0.6774,-0.673,-0.673,-0.6765,-0.6777,-0.6777,-0.6784,-0.6789,0,0,-0.7065,-0.7052,-0.7043,-0.7011,-0.6976,-0.6926,-0.6895,-0.6836,-0.6803,-0.6756,-0.6754,-0.6767,-0.6778,-0.6778,-0.6809,-0.6814,0,0,0,-0.7057,-0.7051,-0.7035,-0.7006,-0.6962,-0.6924,-0.6867,-0.6844,-0.6803,-0.6786,-0.6766,-0.6771,-0.677,-0.6771,-0.6775,-0.6772,-0.6732,-0.6732,-0.6732,-0.7117,-0.7077,-0.706,-0.7008,-0.698,-0.6921,-0.6894,-0.6853,-0.682,-0.6815,-0.6801,-0.6826,-0.6829,-0.6832,-0.6829,-0.6801,-0.6801,-0.6801,-0.6801,-0.7132,-0.7117,-0.7073,-0.7041,-0.6998,-0.6969,-0.6911,-0.6888,-0.6854,-0.6833,-0.6829,-0.6811,-0.6838,-0.6833,-0.6804,-0.6803,-0.6803,-0.6803,-0.6803,-0.7167,-0.7153,-0.7127,-0.708,-0.7048,-0.6995,-0.6965,-0.6926,-0.6888,-0.6885,-0.6866,-0.6865,-0.6859,-0.6879,-0.6879,-0.6879,-0.6879,-0.6879,-0.6879,-0.7214,-0.7183,-0.7164,-0.7116,-0.7092,-0.7055,-0.6995,-0.6969,-0.693,-0.6904,-0.6904,-0.6871,-0.6849,-0.6844,-0.688,-0.688,-0.688,-0.688,-0.6879,-0.7244,-0.7231,-0.7201,-0.7177,-0.7117,-0.7088,-0.7038,-0.699,-0.6962,-0.6948,-0.6915,-0.6906,-0.6889,-0.6886,-0.6882,-0.6925,-0.6925,-0.6925,-0.6925,-0.7274,-0.7262,-0.7222,-0.7186,-0.7146,-0.7099,-0.7064,-0.7016,-0.6965,-0.6945,-0.6933,-0.6924,-0.6922,-0.6906,-0.6902,-0.6898,-0.6944,-0.6944,-0.6944,-0.729,-0.7272,-0.7252,-0.7203,-0.7153,-0.711,-0.7076,-0.7035,-0.6973,-0.6944,-0.6929,-0.6928,-0.6913,-0.691,-0.6882,-0.6877,-0.6868,0,0]}]]